Regional Weather Roundup
Issued by NWS Goodland, KS

Home | Current Version | Previous Version | Graphics & Text | Print | Product List | Glossary On
Versions: 1 2 3 4 5 6 7 8 9 10 11 12 13 14 15 16 17 18 19 20 21 22 23 24 25 26 27 28 29 30 31 32 33 34 35 36 37 38 39 40 41 42 43 44 45 46 47 48 49 50
000
ASUS43 KGLD 200308
RWRGLD

GOODLAND FORECAST AREA HOURLY WEATHER ROUNDUP
NATIONAL WEATHER SERVICE GOODLAND KS
900 PM MDT SAT APR 19 2014

...OFFICIAL OBSERVATIONS...

CITY           SKY/WX    TMP DP  RH WIND       PRES   REMARKS
GOODLAND KS    MOCLDY    57  50  77 E12       30.02R
HILL CITY KS   CLOUDY    67  54  63 W12       29.97R
IMPERIAL NEB   PTCLDY    52  41  66 N8        30.01R
MCCOOK NEB     MOCLDY    59  48  67 N12       29.98R
AKRON CO       CLEAR     51  39  63 E7        30.04R
BURLINGTON CO  MOCLDY    57  46  66 E12       30.03R
LIMON CO       PTCLDY    54  38  54 NE7       30.08R
$$

...UNOFFICIAL OBSERVATIONS...

CITY           SKY/WX    TMP DP  RH WIND       PRES   REMARKS
COLBY KS       MOCLDY    57  50  77 SE5       30.03R
LENORA KS        N/A     65  32  29 CALM        N/A
LEOTI KS         N/A     60  32  34 CALM        N/A
NORTON KS      MOCLDY    61  48  63 N7        29.95R
OBERLIN KS     CLOUDY    59  48  67 N5        29.99R
SHARON SPRINGS   N/A     58  52  80 CALM        N/A
ST FRANCIS KS  PTCLDY    57  45  62 SE10      30.03R
WAKEENEY KS      N/A     68  45  43 MISG        N/A
KIT CARSON CO    N/A     60  45  57 MISG        N/A
WRAY CO        FAIR      55  41  58 NE8       30.02
$$



USA.gov is the U.S. government's official web portal to all federal, state and local government web resources and services.